Tracking 19192 objects as of 21-Jun-2018
HD Live streaming from Space Station
objects crossing your sky now

IRIDIUM 123

Track IRIDIUM 123 now!
10-day predictions
IRIDIUM 123 is classified as:


NORAD ID: 42804
Int'l Code: 2017-039B
Perigee: 783.3 km
Apogee: 786.3 km
Inclination: 86.4 °
Period: 100.4 minutes
Semi major axis: 7155 km
RCS: Unknown
Launch date: June 25, 2017
Source: United States (US)
Launch site: AIR FORCE WESTERN TEST RANGE (AFWTR)
aabbcc
Your satellite tracking list
Your tracking list is empty




NASA's NSSDC Master Catalog

Two Line Element Set (TLE):
1 42804U 17039B   18172.42285108  .00000087  00000-0  23893-4 0  9991
2 42804  86.3975 132.9435 0002044  88.3593 271.7837 14.34219659 51747
Source of the keplerian elements: AFSPC